Location: Góry Miechowskie
(50.3599°N, 20.1803°E)
Time: 14:48:24
(UTC+00:00)

Transit 2A Rocket - Visible Passes

Search period start: 13 September 2024 00:00
Search period end: 23 September 2024 00:00
Orbit: 582 x 910 km, 66.7° (Epoch: 12 September)

Date Brightness Start Highest point End Pass type
(mag) Time Alt. Az. Time Alt. Az. Time Alt. Az.
13 Sep 6.7 01:05:06 25° WNW 01:06:47 28° NNW 01:12:00 10° NNE visible
13 Sep 7.5 02:47:29 10° NW 02:51:19 17° N 02:55:07 10° NNE visible
13 Sep 6.8 22:42:07 30° NE 22:42:07 30° NE 22:45:09 10° NE visible
14 Sep 6.3 00:21:53 37° NW 00:22:03 37° NW 00:27:41 10° NNE visible
14 Sep 7.4 02:02:11 10° NW 02:06:19 18° NNW 02:10:24 10° NNE visible
14 Sep 7.3 21:58:54 19° NE 21:58:54 19° NE 22:00:36 10° NE visible
14 Sep 6.3 23:38:39 44° N 23:38:39 44° N 23:43:22 10° NNE visible
15 Sep 7.2 01:18:26 15° NW 01:21:21 21° NNW 01:25:52 10° NNE visible
15 Sep 7.6 03:02:19 10° NW 03:06:08 17° N 03:09:52 10° NE visible
15 Sep 7.8 21:15:38 11° NE 21:15:38 11° NE 21:15:50 10° NE visible
15 Sep 6.6 22:55:24 37° NNE 22:55:24 37° NNE 22:59:02 10° NE visible
16 Sep 6.9 00:35:10 24° NW 00:36:27 26° NNW 00:41:26 10° NNE visible
16 Sep 7.6 02:17:19 10° NW 02:21:05 17° N 02:24:47 10° NE visible
16 Sep 7.0 22:12:07 26° NE 22:12:07 26° NE 22:14:37 10° NE visible
16 Sep 6.6 23:51:53 33° NNW 23:51:53 33° NNW 23:57:05 10° NNE visible
17 Sep 7.5 01:32:03 10° NW 01:36:02 18° N 01:39:57 10° NNE visible
17 Sep 7.5 03:16:38 10° NNW 03:20:51 19° NNE 03:24:56 10° ENE visible
17 Sep 7.4 21:28:48 17° NE 21:28:48 17° NE 21:30:07 10° NE visible
17 Sep 6.6 23:08:34 36° N 23:08:34 36° N 23:12:45 10° NNE visible
18 Sep 7.4 00:48:20 15° NW 00:51:00 20° NNW 00:55:19 10° NNE visible
18 Sep 7.6 02:31:57 10° NNW 02:35:49 17° N 02:39:36 10° NE visible
18 Sep 6.9 22:25:14 31° NNE 22:25:14 31° NNE 22:28:24 10° NNE visible
19 Sep 7.1 00:05:00 22° NW 00:06:03 23° NNW 00:10:49 10° NNE visible
19 Sep 7.7 01:47:00 10° NW 01:50:45 16° N 01:54:24 10° NE visible
19 Sep 7.3 03:30:34 10° NNW 03:35:24 24° NNE 03:40:00 10° E visible
19 Sep 7.2 21:41:52 23° NE 21:41:52 23° NE 21:44:00 10° NE visible
19 Sep 6.9 23:21:38 29° NNW 23:21:38 29° NNW 23:26:25 10° NNE visible
20 Sep 7.6 01:01:49 10° NW 01:05:39 17° N 01:09:26 10° NNE visible
20 Sep 7.5 02:46:05 10° NNW 02:50:27 20° NNE 02:54:39 10° ENE visible
20 Sep 7.5 20:58:30 15° NE 20:58:30 15° NE 20:59:30 10° NE visible
20 Sep 6.9 22:38:15 31° N 22:38:15 31° N 22:42:02 10° NNE visible
21 Sep 7.5 00:18:00 15° NW 00:20:35 19° NNW 00:24:41 10° NNE visible
21 Sep 7.7 02:01:27 10° NNW 02:05:25 18° NNE 02:09:16 10° NE visible
21 Sep 6.8 03:44:17 10° NNW 03:49:43 35° NE 03:54:47 10° ESE visible
21 Sep 7.0 21:54:50 28° NNE 21:54:50 28° NNE 21:57:40 10° NNE visible
21 Sep 7.3 23:34:35 21° NW 23:35:34 22° NNW 23:40:07 10° NNE visible
22 Sep 7.7 01:16:35 10° NW 01:20:19 17° N 01:23:58 10° NE visible
22 Sep 7.2 02:59:53 10° NNW 03:04:53 27° NNE 03:09:37 10° E visible
22 Sep 7.3 21:11:23 21° NNE 21:11:23 21° NNE 21:13:15 10° NE visible
22 Sep 7.1 22:51:08 26° NNW 22:51:08 26° NNW 22:55:39 10° NNE visible
